Location: Boiro
(42.6475°N, 8.8834°W)
Time: 08:29:40
(UTC+02:00)

FALCONSAT-6 - Pass Details

Date: 04 July 2022
Orbit: 555 x 585 km, 97.6° (Epoch: 10 August)

Event Time Altitude Azimuth Distance (km) Brightness Sun altitude
Exits shadow 22:41:31 - 104° (ESE) 2,464 ? -4.5°
Reaches altitude 10° 22:44:19 10° 74° (ENE) 1,909 ? -5.0°
Drops below altitude 10° 22:46:07 10° 49° (NE) 1,910 ? -5.2°
Enters shadow 23:43:16 -68° 170° (S) 12,408 ? -12.9°
Maximum altitude 00:19:43 75° 257° (WSW) 609 ? -16.9°
